Weather History for KIML - February, 2013

Change the Weather History Date:

Saturday, February 2, 2013

  Actual Average Record
Temperature  
Mean Temperature 40 °F 29 °F  
Max Temperature 53 °F 42 °F 76 °F (2003)
Min Temperature 26 °F 17 °F -19 °F (1899)
Degree Days  
Heating Degree Days 25 36  
Month to date heating degree days 53 72  
Cooling Degree Days 0 0  
Month to date cooling degree days 0 0  
Year to date cooling degree days 0 0  
Moisture  
Dew Point 23 °F    
Average Humidity 56    
Maximum Humidity 85    
Minimum Humidity 26    
Precipitation  
Precipitation 0.00 in 0.01 in 0.30 in (1920)
Sea Level Pressure  
Sea Level Pressure 30.28 in    
Wind  
Wind Speed 12 mph (WNW)    
Max Wind Speed 29 mph    
Max Gust Speed 36 mph    
Visibility 10 miles    
Events      
T = Trace of Precipitation, MM = Missing Value Source: NWS Daily Summary

Daily Weather History Graph

Daily Weather History Graph

Search for Another Location

Airport or City:

Trip Planner

Search our weather history database for the weather conditions in past years. The results will help you decide how hot, cold, wet, or windy it might be!

Date:

Astronomy

Feb. 02, 2013 Rise Set
Actual Time 6:54 AM MST 5:06 PM MST
Civil Twilight 6:26 AM MST 5:35 PM MST
Nautical Twilight 5:53 AM MST 6:07 PM MST
Astronomical Twilight 5:21 AM MST 6:39 PM MST
Moon No Moon Rise 10:04 AM MST (2/2)
Length of Visible Light 11h 09m
Length of Day
10h 11m
Waning Gibbous, 59% of the Moon is Illuminated
Feb 2
Waning Gibbous
Feb 3
Last Quarter
Feb 10
New
Feb 17
First Quarter
Feb 25
Full

Hourly Weather History & Observations

Time (MST) Temp. Windchill Dew Point Humidity Pressure Visibility Wind Dir Wind Speed Gust Speed Precip Events Conditions
12:53 AM 28.0 °F 18.6 °F 25.0 °F 88% 30.22 in 10.0 mi WNW 10.4 mph - N/A   Clear
1:53 AM 32.0 °F 22.5 °F 26.6 °F 80% 30.16 in 10.0 mi West 12.7 mph - N/A   Mostly Cloudy
2:53 AM 32.0 °F 23.6 °F 26.1 °F 79% 30.22 in 10.0 mi NW 10.4 mph - N/A   Clear
3:53 AM 32.0 °F 22.5 °F 26.1 °F 79% 30.25 in 10.0 mi NW 12.7 mph - N/A   Clear
4:53 AM 30.2 °F 21.3 °F 24.8 °F 80% 30.21 in 10.0 mi WNW 10.4 mph - N/A   Partly Cloudy
5:53 AM 30.9 °F 21.7 °F 25.0 °F 79% 30.27 in 10.0 mi WNW 11.5 mph - N/A   Clear
6:53 AM 30.0 °F 20.0 °F 24.1 °F 79% 30.29 in 10.0 mi West 12.7 mph - N/A   Clear
7:53 AM 32.0 °F 23.0 °F 25.0 °F 75% 30.31 in 10.0 mi WNW 11.5 mph - N/A   Clear
8:53 AM 37.9 °F 30.5 °F 27.0 °F 65% 30.32 in 10.0 mi NW 11.5 mph - N/A   Clear
9:53 AM 42.1 °F 35.2 °F 27.0 °F 55% 30.31 in 10.0 mi NW 12.7 mph - N/A   Clear
10:53 AM 46.0 °F 39.3 °F 26.1 °F 46% 30.30 in 10.0 mi NW 16.1 mph 21.9 mph N/A   Clear
11:53 AM 48.9 °F - 24.1 °F 38% 30.27 in 10.0 mi NW 17.3 mph - N/A   Clear
12:53 PM 50.0 °F - 21.0 °F 32% 30.26 in 10.0 mi NNW 20.7 mph 34.5 mph N/A   Clear
1:53 PM 53.1 °F - 19.9 °F 27% 30.23 in 10.0 mi NW 18.4 mph 32.2 mph N/A   Clear
2:53 PM 52.0 °F - 21.0 °F 30% 30.23 in 10.0 mi NW 21.9 mph 32.2 mph N/A   Clear
3:53 PM 51.1 °F - 19.9 °F 29% 30.25 in 10.0 mi NNW 15.0 mph - N/A   Clear
4:53 PM 45.0 °F 40.1 °F 19.0 °F 36% 30.27 in 10.0 mi WNW 9.2 mph - N/A   Clear
5:53 PM 39.9 °F 33.4 °F 19.0 °F 43% 30.30 in 10.0 mi West 10.4 mph - N/A   Clear
6:53 PM 39.0 °F 33.4 °F 19.9 °F 46% 30.32 in 10.0 mi NW 8.1 mph - N/A   Clear
7:53 PM 32.0 °F 24.8 °F 19.9 °F 61% 30.35 in 10.0 mi NW 8.1 mph - N/A   Clear
8:53 PM 34.0 °F 28.0 °F 19.9 °F 56% 30.34 in 10.0 mi NW 6.9 mph - N/A   Clear
9:53 PM 28.9 °F 21.9 °F 21.0 °F 72% 30.34 in 10.0 mi West 6.9 mph - N/A   Clear
10:53 PM 28.0 °F 20.8 °F 19.9 °F 72% 30.34 in 10.0 mi WSW 6.9 mph - N/A   Clear
11:53 PM 30.9 °F 25.2 °F 19.9 °F 64% 30.31 in 10.0 mi West 5.8 mph - N/A   Clear